Location: Seattle
(47.6064°N, 122.3308°W)
Time: 06:11:35
(UTC-07:00)

Tiros 1 - Pass Details

Date: 02 August 2021
Orbit: 630 x 663 km, 48.4° (Epoch: 25 September)

Event Time Altitude Azimuth Distance (km) Brightness Sun altitude
Rises 00:16:18 0° 286° (WNW) 2,965 11.0 -23.4°
Reaches altitude 10° 00:18:45 10° 279° (W) 2,047 10.0 -23.5°
Enters shadow 00:21:53 33° 248° (WSW) 1,078 8.2 -23.6°
